TimeCST,TemperatureF,Dew PointF,Humidity,Sea Level PressureIn,VisibilityMPH,Wind Direction,Wind SpeedMPH,Gust SpeedMPH,PrecipitationIn,Events,Conditions,WindDirDegrees,DateUTC
12:16 AM,20.3,12.7,73,30.03,10.0,NE,6.9,-,N/A,,Overcast,40,2013-02-22 06:16:00
12:36 AM,20.8,13.6,74,30.02,10.0,NNE,8.1,-,N/A,,Overcast,30,2013-02-22 06:36:00
12:56 AM,20.7,14.2,76,30.01,5.0,NE,8.1,-,N/A,Snow,Light Snow,40,2013-02-22 06:56:00
1:16 AM,20.1,16.2,85,30.00,1.8,NE,8.1,-,N/A,Snow,Light Snow,50,2013-02-22 07:16:00
1:36 AM,19.8,16.7,88,29.99,2.0,NE,6.9,-,N/A,Snow,Light Snow,40,2013-02-22 07:36:00
1:56 AM,19.4,17.2,91,29.99,1.2,NE,6.9,-,N/A,Snow,Light Snow,40,2013-02-22 07:56:00
2:16 AM,19.6,17.4,91,29.98,1.8,NE,5.8,-,N/A,Snow,Light Snow,40,2013-02-22 08:16:00
2:36 AM,19.8,17.6,91,29.97,1.5,NNE,4.6,-,N/A,Snow,Light Snow,30,2013-02-22 08:36:00
2:56 AM,19.6,17.6,92,29.97,1.2,NNE,5.8,-,N/A,Snow,Light Snow,20,2013-02-22 08:56:00
3:16 AM,19.4,17.6,93,29.97,1.5,NNE,5.8,-,0.01,Snow,Light Snow,30,2013-02-22 09:16:00
3:36 AM,19.4,17.4,92,29.95,2.5,NNE,6.9,-,0.01,Snow,Light Snow,30,2013-02-22 09:36:00
3:56 AM,19.4,17.4,92,29.95,3.0,NNE,6.9,-,0.01,Snow,Light Snow,20,2013-02-22 09:56:00
4:16 AM,19.4,17.4,92,29.93,1.0,North,9.2,-,N/A,Snow,Snow,10,2013-02-22 10:16:00
4:36 AM,19.8,17.6,91,29.93,2.0,NNE,8.1,-,N/A,Snow,Light Snow,20,2013-02-22 10:36:00
4:56 AM,19.9,17.6,91,29.94,2.0,NNE,6.9,-,N/A,Snow,Light Snow,30,2013-02-22 10:56:00
5:16 AM,19.9,17.6,91,29.93,2.0,NNE,5.8,-,N/A,Snow,Light Snow,20,2013-02-22 11:16:00
5:36 AM,19.9,17.6,91,29.93,2.0,North,5.8,-,N/A,Snow,Light Snow,10,2013-02-22 11:36:00
5:56 AM,19.9,17.6,91,29.92,3.0,North,8.1,-,N/A,Snow,Light Snow,360,2013-02-22 11:56:00
6:16 AM,19.9,17.6,91,29.92,4.0,NNE,5.8,-,N/A,Snow,Light Snow,20,2013-02-22 12:16:00
6:36 AM,19.9,17.6,91,29.92,1.8,North,6.9,-,N/A,Snow,Light Snow,10,2013-02-22 12:36:00
6:56 AM,19.8,17.6,91,29.92,2.0,North,8.1,-,N/A,Snow,Light Snow,10,2013-02-22 12:56:00
7:36 AM,19.9,17.6,91,29.91,1.2,North,8.1,-,N/A,Snow,Light Snow,10,2013-02-22 13:36:00
7:56 AM,20.1,17.6,90,29.91,1.0,North,5.8,-,N/A,Snow,Light Snow,10,2013-02-22 13:56:00
8:16 AM,20.3,18.0,91,29.90,1.2,North,5.8,-,N/A,Snow,Light Snow,10,2013-02-22 14:16:00
8:36 AM,20.3,17.6,89,29.90,1.8,North,9.2,-,N/A,Snow,Light Snow,360,2013-02-22 14:36:00
8:56 AM,20.8,17.6,87,29.90,2.0,NNE,6.9,-,N/A,Snow,Light Snow,20,2013-02-22 14:56:00
9:16 AM,21.0,18.1,89,29.90,1.2,North,8.1,-,N/A,Snow,Light Snow,10,2013-02-22 15:16:00
9:36 AM,21.6,18.3,87,29.90,1.5,North,5.8,-,N/A,Snow,Light Snow,10,2013-02-22 15:36:00
9:56 AM,22.1,18.5,86,29.90,2.0,NNE,6.9,-,N/A,Snow,Light Snow,20,2013-02-22 15:56:00
10:16 AM,22.3,18.5,85,29.89,3.0,NNE,8.1,-,N/A,Snow,Light Snow,20,2013-02-22 16:16:00
10:36 AM,23.0,18.5,83,29.89,1.5,NNE,9.2,-,N/A,Snow,Light Snow,20,2013-02-22 16:36:00
10:56 AM,23.4,18.7,82,29.89,2.5,North,8.1,-,N/A,Snow,Light Snow,360,2013-02-22 16:56:00
11:16 AM,23.5,19.2,84,29.89,3.0,North,5.8,-,N/A,Snow,Light Snow,360,2013-02-22 17:16:00
11:36 AM,23.7,19.2,83,29.88,3.0,North,8.1,-,N/A,Snow,Light Snow,360,2013-02-22 17:36:00
11:56 AM,24.1,19.2,82,29.88,7.0,North,8.1,-,N/A,Snow,Light Snow,360,2013-02-22 17:56:00
12:16 PM,24.6,19.4,81,29.87,7.0,North,6.9,-,N/A,Snow,Light Snow,10,2013-02-22 18:16:00
12:36 PM,24.8,19.4,80,29.87,7.0,NNW,6.9,-,N/A,Snow,Light Snow,340,2013-02-22 18:36:00
12:56 PM,24.8,19.4,80,29.87,5.0,North,4.6,-,N/A,Snow,Light Snow,350,2013-02-22 18:56:00
1:16 PM,25.2,19.4,79,29.86,7.0,NNW,5.8,-,N/A,Snow,Light Snow,340,2013-02-22 19:16:00
1:36 PM,25.5,19.6,78,29.86,7.0,NNW,5.8,-,N/A,Snow,Light Snow,330,2013-02-22 19:36:00
1:56 PM,25.7,19.8,78,29.85,7.0,NNW,6.9,-,N/A,Snow,Light Snow,330,2013-02-22 19:56:00
2:16 PM,26.1,19.8,77,29.85,7.0,NNW,5.8,-,N/A,Snow,Light Snow,340,2013-02-22 20:16:00
2:36 PM,25.3,19.2,78,29.85,10.0,NW,5.8,-,N/A,Snow,Light Snow,310,2013-02-22 20:36:00
2:56 PM,25.2,19.0,78,29.85,7.0,West,6.9,-,N/A,Snow,Light Snow,280,2013-02-22 20:56:00
3:16 PM,25.3,18.7,76,29.86,7.0,WNW,6.9,-,N/A,Snow,Light Snow,300,2013-02-22 21:16:00
3:36 PM,24.8,18.9,78,29.86,10.0,WNW,8.1,-,N/A,Snow,Light Snow,290,2013-02-22 21:36:00
3:56 PM,25.0,19.0,78,29.86,5.0,West,8.1,-,N/A,Snow,Light Snow,280,2013-02-22 21:56:00
4:16 PM,24.8,19.0,79,29.87,10.0,WNW,9.2,-,N/A,Snow,Light Snow,290,2013-02-22 22:16:00
4:36 PM,24.6,20.1,83,29.87,4.0,West,9.2,-,N/A,Snow,Light Snow,270,2013-02-22 22:36:00
4:56 PM,24.1,20.3,85,29.87,4.0,West,8.1,-,N/A,Snow,Light Snow,280,2013-02-22 22:56:00
5:16 PM,23.9,20.7,87,29.88,4.0,West,8.1,-,N/A,Snow,Light Snow,280,2013-02-22 23:16:00
5:36 PM,23.7,20.7,88,29.89,3.0,West,9.2,-,N/A,Snow,Light Snow,280,2013-02-22 23:36:00
5:56 PM,23.5,20.8,89,29.89,2.0,West,9.2,-,N/A,Snow,Light Snow,270,2013-02-22 23:56:00
6:16 PM,23.4,20.8,90,29.88,3.0,West,9.2,-,N/A,Snow,Light Snow,280,2013-02-23 00:16:00
6:36 PM,23.0,20.8,91,29.89,4.0,West,6.9,-,N/A,Snow,Light Snow,280,2013-02-23 00:36:00
6:56 PM,22.8,20.3,90,29.89,5.0,West,8.1,-,N/A,Snow,Light Snow,280,2013-02-23 00:56:00
7:16 PM,22.1,19.6,90,29.89,7.0,West,5.8,-,N/A,Snow,Light Snow,280,2013-02-23 01:16:00
7:36 PM,21.6,19.4,91,29.88,7.0,WNW,6.9,-,N/A,Snow,Light Snow,290,2013-02-23 01:36:00
7:56 PM,21.7,19.4,91,29.87,10.0,WNW,5.8,-,N/A,Snow,Light Snow,300,2013-02-23 01:56:00
8:16 PM,21.7,19.4,91,29.87,10.0,West,6.9,-,N/A,Snow,Light Snow,280,2013-02-23 02:16:00
8:36 PM,22.1,19.4,89,29.86,10.0,WNW,5.8,-,N/A,,Overcast,300,2013-02-23 02:36:00
8:56 PM,22.1,19.4,89,29.87,10.0,WNW,6.9,-,N/A,,Overcast,300,2013-02-23 02:56:00
9:16 PM,21.6,18.9,89,29.87,10.0,West,5.8,-,N/A,,Overcast,280,2013-02-23 03:16:00
9:36 PM,22.1,19.2,89,29.87,10.0,WNW,4.6,-,N/A,,Overcast,290,2013-02-23 03:36:00
9:56 PM,22.5,19.4,88,29.87,10.0,SW,3.5,-,N/A,,Overcast,230,2013-02-23 03:56:00
10:16 PM,21.2,19.0,91,29.87,10.0,West,5.8,-,N/A,,Overcast,260,2013-02-23 04:16:00
10:36 PM,21.2,18.9,91,29.87,7.0,SW,4.6,-,N/A,,Overcast,230,2013-02-23 04:36:00
10:56 PM,20.7,18.5,91,29.87,7.0,WSW,3.5,-,N/A,Snow,Light Snow,240,2013-02-23 04:56:00
11:16 PM,20.3,18.3,92,29.87,7.0,WSW,4.6,-,N/A,Snow,Light Snow,250,2013-02-23 05:16:00
11:36 PM,20.1,17.6,90,29.87,7.0,WSW,4.6,-,N/A,Snow,Light Snow,240,2013-02-23 05:36:00
11:56 PM,19.2,16.9,91,29.87,7.0,West,5.8,-,N/A,Snow,Light Snow,260,2013-02-23 05:56:00